Regional Weather Roundup
Issued by NWS

Home | Current Version | Previous Version | Text Only | Print | Product List | Glossary Off
Versions: 1 2 3 4 5 6 7 8 9 10 11 12 13 14 15 16 17 18 19 20 21 22 23 24 25 26 27 28 29 30 31 32 33 34 35 36 37 38 39 40 41 42 43 44 45 46 47 48 49 50

000
ASUS43 KLOT 231908
RWRIL

ILLINOIS REGIONAL WEATHER ROUNDUP
NATIONAL WEATHER SERVICE CHICAGO/ROMEOVILLE IL
200 PM CDT FRI JUN 23 2017

NOTE: "FAIR" INDICATES FEW OR NO CLOUDS BELOW 12,000 FEET WITH NO
SIGNIFICANT WEATHER AND/OR OBSTRUCTIONS TO VISIBILITY.

* THESE STATIONS ARE NOT UNDER NWS QUALITY CONTROL. THEY ALSO MAY NOT
  REPORT WEATHER SUCH AS PRECIPITATION OR FOG.

ILZ001-002-007-009-015-016-024-232000-
NORTHWEST ILLINOIS

CITY           SKY/WX    TMP DP  RH WIND       PRES   REMARKS
MOLINE         MOSUNNY   83  56  39 NW13      29.76F HX  82
STERLING*      SUNNY     79  58  48 W10G22    29.76S HX  80
SAVANNA*       PTSUNNY   81  55  40 W14G21    29.74F HX  81
$$

ILZ003-004-008-010-011-017-018-232000-
NORTH CENTRAL ILLINOIS

CITY           SKY/WX    TMP DP  RH WIND       PRES   REMARKS
ROCKFORD       PTSUNNY   81  52  36 NW14G23   29.74S HX  80
FREEPORT*      MOSUNNY   78  53  42 W12G23    29.76S
ROCHELLE*      SUNNY     79  54  41 NW18      29.75S
DE KALB*       MOSUNNY   79  53  39 NW9       29.75S
PERU*          MOSUNNY   79  51  37 N10G17    29.76R
$$

ILZ005-006-012>014-019>023-232000-
NORTHEAST ILLINOIS

CITY           SKY/WX    TMP DP  RH WIND       PRES   REMARKS
CHICAGO-OHARE  PTSUNNY   81  46  29 NW12      29.71S HX  80
CHICAGO-MIDWAY CLOUDY    82  49  31 N13       29.71S HX  81
AURORA         SUNNY     79  51  37 NW15G21   29.74S
LANSING*       CLOUDY    76  55  47 NE7       29.71F
JOLIET*        SUNNY     81  49  32 N12G21    29.73S HX  80
WAUKEGAN       SUNNY     79  46  31 NW8       29.70S
DUPAGE AIRPORT SUNNY     79  49  34 NW16G25   29.72S
WHEELING       SUNNY     80  47  31 NW14G21   29.72S
MORRIS*        SUNNY     80  52  36 N8        29.73S HX  80
ROMEOVILLE*    SUNNY     80  47  32 N12G21    29.73S
NORTHERLY ISL    N/A     72  60  66 CALM        N/A
$$

LMZ740>746-232000-
SOUTHERN LAKE MICHIGAN

STATION/POSITION SKY/WX   TEMP    WIND        PRES    VSBY  WAVE
                          AIR SEA DIR/SP/G                  HT/PER
                          (F)     (DEG/KT/KT) (MB)    (MI)  (FT/S)
SOUTHERN BUOY              63 61  300/  6/  8 1005.3          1
WILMETTE HARBOR            71 67   40/  2/  4   N/A           1
HARRISON CRIB              71      20/  8/  9   N/A
BURNHAM HARBOR             73                   N/A
CALUMET HARBOR             72      10/  7/ 11 1005.9F
BURNS HARBOR               67     290/  3/  4 1007.1S
MICHIGAN CITY              68     270/  7/  8   N/A
MICHIGAN CITY 6N           67 68  290/  6/  8   N/A           1/ 3
ST. JOSEPH                 67 68  330/  8/ 12 1006.3          2/ 3
$$

ILZ025>027-034>036-040-047-049-050-058-095>099-232000-
WEST-CENTRAL ILLINOIS

CITY           SKY/WX    TMP DP  RH WIND       PRES   REMARKS
QUINCY         SUNNY     82  51  34 N13       29.81R HX  81
GALESBURG*     SUNNY     79  57  45 NW10      29.80S HX  80
MACOMB*        SUNNY     80  53  38 N13       29.81S HX  80
JACKSONVILLE*  SUNNY     82  53  35 N15G22    29.77S HX  81
PITTSFIELD*    SUNNY     82  54  36 N14G20    29.80S HX  81
$$

ILZ028>032-037-038-041>044-048-051>054-059>061-232000-
CENTRAL ILLINOIS

CITY           SKY/WX    TMP DP  RH WIND       PRES   REMARKS
PONTIAC        CLOUDY    79  57  45 N13G20    29.75F HX  80
BLOOMINGTON    CLOUDY    80  53  39 N17       29.76S HX  80
DECATUR        PTSUNNY   79  67  66 N15G22    29.74R HX  81
PEORIA         MOSUNNY   82  53  36 N9        29.76S HX  81
LACON*         MOSUNNY   80  58  45 NW9       29.75S HX  81
LINCOLN*       SUNNY     82  59  44 N12G18    29.75F HX  82
SPRINGFIELD    SUNNY     84  54  35 NE18      29.75F HX  83
TAYLORVILLE    CLOUDY    80  65  60 N16G23    29.74S HX  81
$$

ILZ033-039-045-046-055>057-062-063-232000-
EAST-CENTRAL ILLINOIS

CITY           SKY/WX    TMP DP  RH WIND       PRES   REMARKS
CHAMPAIGN      CLOUDY    77  67  71 N12       29.73F
RANTOUL*       CLOUDY    79  67  65 N16       29.73F HX  81
MATTOON        CLOUDY    77  75  93 N12       29.70S
PARIS*         CLOUDY    75  73  92 N7        29.72S
$$

ILZ079-100>102-232000-
SOUTHWEST ILLINOIS

CITY           SKY/WX    TMP DP  RH WIND       PRES   REMARKS
ALTON          MOSUNNY   81  68  65 N17G26    29.73S HX  83
BELLEVILLE     CLOUDY    85  73  65 N20       29.70S HX  92
CAHOKIA*       PTSUNNY   86  69  56 N24G30    29.72R HX  90
SPARTA*        PTSUNNY   85  71  64 NW10G21   29.71R HX  90
$$

ILZ064>066-069>071-074>076-080>082-084>086-088>090-092>094-232000-
SOUTH-CENTRAL ILLINOIS

CITY           SKY/WX    TMP DP  RH WIND       PRES   REMARKS
CARBONDALE     CLOUDY    81  77  88 NW7       29.69S HX  88
CAIRO*         CLOUDY    80  75  86 W8        29.69R HX  84
EFFINGHAM*     CLOUDY    75  74  98 NE6       29.71S
MARION         CLOUDY    79  79 100 W5        29.69F HX  83
MT. VERNON     CLOUDY    80  75  84 VRB3      29.68F HX  85
CENTRALIA*     CLOUDY    84  76  77 CALM      29.67F HX  93
SALEM*         CLOUDY    83  74  73 W7        29.68F HX  90
METROPOLIS*    CLOUDY    78  75  91 NW6       29.68R HX  80
$$

ILZ067-068-072-073-078-083-087-091-232000-
SOUTHEAST ILLINOIS

CITY           SKY/WX    TMP DP  RH WIND       PRES   REMARKS
LAWRENCEVILLE  CLOUDY    77  74  90 SW8       29.69R
FLORA*         CLOUDY    80  74  80 W7        29.68S HX  84
FAIRFIELD*     CLOUDY    76  75  96 SW3       29.68S
HARRISBURG*    CLOUDY    78  75  89 W5        29.68S HX  81
ROBINSON*      HVY RAIN  74  73  94 NW6       29.71R
CARMI*         CLOUDY    77  74  91 SW6       29.68S
$$

ABBREVIATIONS USED IN REMARKS
   TC - TEMPERATURE IN CELSIUS
  WCI - WIND CHILL INDEX
   HX - HEAT INDEX
  VSB - VISIBILITY
$$





USA.gov is the U.S. government's official web portal to all federal, state and local government web resources and services.